Location: St. Louis
(38.6270°N, 90.1994°W)
Time: 07:59:26
(UTC-06:00)

Altair - Pass Details

Date: 05 December 2021
Orbit: 1501 x 1683 km, 47.2° (Epoch: 17 January)

Event Time Altitude Azimuth Distance (km) Brightness Sun altitude
Rises 18:54:53 0° 290° (WNW) 4,711 11.0 -25.8°
Reaches altitude 10° 18:58:06 10° 295° (WNW) 3,707 10.2 -26.4°
Maximum altitude 19:07:11 55° 12° (NNE) 1,773 7.6 -28.2°
Enters shadow 19:09:01 48° 48° (NE) 1,888 7.5 -28.5°
Drops below altitude 10° 19:16:08 10° 89° (E) 3,650 - -29.9°
Sets 19:19:15 0° 94° (E) 4,635 - -30.5°
